Probability
0 0 0 0 0 0 0 0 0 0 0 0 0 0 0 0 0 0 0 0 1 2 4 6 8 8 7 6 6 5 3 1 0 0 0 0 0 0 0 0 0 0 0 0
0 0 0 0 0 0 0 0 0 0 0 0 0 0 0 0 0 0 0 0 1 3 4 6 7 7 6 5 4 4 3 2 1 0 0 0 0 0 0 0 0 0 0 0
0 0 0 0 0 0 0 0 0 0 0 0 0 0 0 0 0 0 0 0 1 3 5 6 5 5 5 4 3 3 3 3 2 1 1 0 0 0 0 0 0 0 0 0
0 0 0 0 0 0 0 0 0 0 0 0 0 0 0 0 0 0 0 1 2 4 5 5 3 3 3 3 3 3 3 3 3 3 2 1 0 0 0 0 0 0 0 0
0 0 0 0 0 0 0 0 0 0 0 0 0 0 0 0 0 0 0 1 2 4 5 4 2 1 1 1 3 3 3 3 3 3 3 2 1 0 0 0 0 0 0 0
0 0 0 0 0 0 0 0 0 0 0 0 0 0 0 0 0 0 0 1 2 3 5 4 1 0 0 1 2 3 3 3 3 3 3 3 1 0 0 0 0 0 0 0
0 0 0 0 0 0 0 0 0 0 0 0 0 0 0 0 0 0 0 0 1 2 4 3 1 0 0 0 1 2 3 3 3 3 3 3 2 1 0 0 0 0 0 0
0 0 0 0 0 0 0 0 0 0 0 0 0 0 0 0 0 0 0 0 0 1 3 3 1 0 0 0 0 1 1 2 3 3 3 3 2 1 0 0 0 0 0 0
0 0 0 0 0 0 0 0 0 0 0 0 0 0 0 0 0 0 0 0 0 1 2 2 1 0 0 0 0 0 0 1 2 3 3 3 2 1 0 0 0 0 0 0
0 0 0 0 0 0 0 0 0 0 0 0 0 0 0 0 0 0 0 0 0 0 1 1 0 0 0 0 0 0 0 0 1 1 2 2 2 1 0 0 0 0 0 0
0 0 0 0 0 0 0 0 0 0 0 0 0 0 0 0 0 0 0 0 0 0 0 0 0 0 0 0 0 0 0 0 0 0 1 1 1 0 0 0 0 0 0 0
0 0 0 0 0 0 0 0 0 0 0 0 0 0 0 0 0 0 0 0 0 0 0 0 0 0 0 0 0 0 0 0 0 0 0 0 0 0 0 0 0 0 0 0
0 0 0 0 0 0 0 0 0 0 0 0 0 0 0 0 0 0 0 0 0 0 0 0 0 0 0 0 0 0 0 0 0 0 0 0 0 0 0 0 0 0 0 0
0 0 0 0 0 0 0 0 0 0 0 0 0 0 0 0 0 0 0 0 0 0 0 0 0 0 0 0 0 0 0 0 0 0 0 0 0 0 0 0 0 0 0 0
0 0 0 0 0 0 0 0 0 0 0 0 0 0 0 0 0 0 0 0 0 0 0 0 0 0 0 0 0 0 0 0 0 0 0 0 0 0 0 0 0 0 0 0
0 0 0 0 0 0 0 0 0 0 0 0 0 0 0 0 0 0 0 0 0 0 0 0 0 0 0 0 0 0 0 0 0 0 0 0 0 0 0 0 0 0 0 0
0 0 0 0 0 0 0 0 0 0 0 0 0 0 0 0 0 0 0 0 0 0 0 0 0 0 0 0 0 0 0 0 0 0 0 0 0 0 0 0 0 0 0 0
0 0 0 0 0 0 0 0 0 0 0 0 0 0 0 0 0 0 0 0 0 0 0 0 0 0 0 0 0 0 0 0 0 0 0 0 0 0 0 0 0 0 0 0
0 0 0 0 0 0 0 0 0 0 0 0 0 0 0 0 0 0 0 0 0 0 0 0 0 0 0 0 0 0 0 0 0 0 0 0 0 0 0 0 0 0 0 0
0 0 0 0 0 0 0 0 0 0 0 0 0 0 0 0 0 0 0 0 0 0 0 0 0 0 0 0 0 0 0 0 0 0 0 0 0 0 0 0 0 0 0 0
0 0 0 0 0 0 0 0 0 0 0 0 0 0 0 0 0 0 0 0 0 0 0 0 0 0 0 0 0 0 0 0 0 0 0 0 0 0 0 0 0 0 0 0
0 0 0 0 0 0 0 0 0 0 0 0 0 0 0 0 0 0 0 0 0 0 0 0 0 0 0 0 0 0 0 0 0 0 0 0 0 0 0 0 0 0 0 0
0 0 0 0 0 0 0 0 0 0 0 0 0 0 0 0 0 0 0 0 0 0 0 0 0 0 0 0 0 0 0 0 0 0 0 0 0 0 0 0 0 0 0 0
0 0 0 0 0 0 0 0 0 0 0 0 0 0 0 0 0 0 0 0 0 0 0 0 0 0 0 0 0 0 0 0 0 0 0 0 0 0 0 0 0 0 0 0
0 0 0 0 0 0 0 0 0 0 0 0 0 0 0 0 0 0 0 0 0 0 0 0 0 0 0 0 0 0 0 0 0 0 0 0 0 0 0 0 0 0 0 0
0 0 0 0 0 0 0 0 0 0 0 0 0 0 0 0 0 0 0 0 0 0 0 0 0 0 0 0 0 0 0 0 0 0 0 0 0 0 0 0 0 0 0 0
Wind_Speed
10 10 14 16 17 9 10 12 12 8 5 9 12 12 9 6 7 8 8 8 9 9 9 8 9 9 10 10 10 11 10 10 8 7 6 6 5 5 4 3 4 4 4 3
9 15 15 12 13 10 11 12 10 5 4 5 8 11 9 8 10 9 10 9 9 8 8 8 9 9 10 11 11 11 11 10 10 7 6 4 5 4 4 3 4 4 4 3
13 7 12 13 13 13 12 13 11 7 4 4 4 9 11 8 8 8 9 9 8 9 9 10 10 10 10 11 12 10 11 11 10 9 6 6 5 4 4 4 3 3 3 3
11 8 11 14 15 14 12 10 10 8 7 5 7 8 9 9 9 9 9 9 9 9 9 9 10 10 10 10 9 10 11 11 10 10 9 10 7 6 5 5 4 4 3 3
8 8 12 15 14 13 8 7 8 9 8 5 8 9 7 7 10 11 10 9 9 8 8 9 9 9 9 9 9 9 10 10 10 10 10 9 7 6 5 5 6 5 4 3
5 3 6 8 8 11 8 9 6 5 6 9 12 11 8 8 10 9 9 8 8 8 7 7 7 7 7 8 8 9 10 10 10 10 10 9 9 8 8 7 6 4 3 3
5 6 4 5 8 10 11 11 6 7 8 9 9 10 9 4 5 7 6 6 6 6 6 7 7 7 7 9 9 9 11 10 10 10 9 9 9 9 9 8 6 5 4 3
8 7 8 7 8 9 13 13 8 8 9 6 8 11 5 1 1 3 4 4 4 5 6 6 7 7 8 9 9 10 11 10 10 10 9 8 8 6 5 6 6 5 4 3
7 6 4 5 4 8 11 11 4 2 3 5 7 5 4 2 2 2 3 3 3 4 4 5 5 6 7 8 9 10 10 10 10 10 9 8 8 6 6 6 5 4 3 3
2 4 5 4 4 3 6 8 5 5 7 7 7 8 6 6 4 3 2 2 2 2 3 4 4 5 6 7 7 8 9 9 9 9 8 6 7 6 6 5 5 4 4 4
2 2 4 5 7 8 8 8 6 5 4 6 7 5 1 3 3 3 1 0 0 2 2 3 3 4 5 6 7 7 8 8 8 8 8 7 6 6 5 5 5 4 4 4
1 1 3 2 1 3 5 9 8 6 5 5 5 2 3 1 2 2 1 1 1 1 2 3 3 4 5 6 6 6 7 7 7 7 7 7 6 5 5 5 4 4 4 4
2 3 4 4 4 4 4 6 6 3 3 5 7 4 3 2 2 2 1 2 2 2 3 3 4 4 5 5 5 6 6 6 6 7 7 6 6 5 5 4 4 4 4 4
1 1 3 5 3 5 6 6 7 6 6 7 8 5 3 2 1 1 1 2 2 3 3 3 3 4 4 5 5 5 5 5 6 6 6 6 5 5 4 4 4 3 3 3
1 1 1 2 2 5 7 9 10 8 7 8 7 7 5 3 3 2 2 3 3 3 3 3 3 3 4 4 4 4 5 5 5 5 5 5 4 4 4 3 3 3 3 3
2 0 1 0 1 3 5 7 10 10 9 8 6 6 2 2 2 3 3 4 4 3 3 3 3 3 3 4 4 4 4 4 5 5 4 4 4 4 3 3 3 2 2 2
1 1 1 1 1 2 4 5 7 7 6 7 8 5 4 4 4 4 4 4 4 3 3 2 2 3 3 3 3 4 4 4 5 5 4 4 3 3 3 2 2 2 2 2
1 1 1 1 2 6 1 0 3 5 4 4 3 3 4 4 3 2 3 4 4 3 3 2 2 2 2 3 3 3 4 4 4 4 4 3 3 3 3 2 2 2 1 1
3 2 1 2 3 2 1 1 1 3 3 2 3 3 2 3 3 2 1 2 3 3 2 2 2 3 3 3 3 4 4 4 4 3 3 2 2 2 2 2 1 1 1 1
0 1 2 2 3 3 2 2 3 3 3 0 2 3 4 5 5 2 2 2 3 3 3 3 3 4 4 4 4 5 4 4 3 3 2 2 1 2 2 1 1 1 1 1
1 1 2 3 2 1 3 4 2 5 0 1 1 2 3 3 0 3 3 3 4 5 5 5 5 4 4 3 4 5 4 3 2 2 2 2 1 2 1 1 1 1 1 0
1 1 2 2 4 2 4 1 1 2 3 1 1 1 1 3 5 5 5 5 5 6 5 5 5 5 4 3 4 4 4 3 2 2 2 2 2 2 1 1 1 1 1 0
1 2 1 1 1 3 2 1 2 2 1 1 1 2 3 4 4 5 5 5 5 5 5 4 5 5 4 4 4 4 3 2 2 2 2 2 2 1 1 1 1 1 1 0
0 1 1 1 1 2 3 3 3 2 2 2 2 2 3 4 5 5 5 5 5 5 4 4 5 4 4 4 4 3 3 2 2 2 2 1 1 1 2 1 1 1 1 1
3 2 1 1 2 2 3 4 3 3 3 3 3 3 3 4 4 5 5 4 4 4 3 3 4 4 3 3 4 3 3 2 2 2 2 1 1 1 1 1 1 1 1 2
1 2 2 1 1 1 2 3 4 3 3 3 3 3 3 3 4 4 4 4 3 3 3 3 3 3 3 3 3 3 3 2 2 2 2 1 1 1 1 1 1 2 2 4
Wind_Direction
186 200 204 200 205 220 201 203 207 204 182 207 219 230 229 216 213 216 212 206 204 207 200 190 188 181 178 176 174 170 166 165 160 156 156 152 150 144 137 129 130 132 127 124
188 214 210 202 202 209 207 206 204 184 168 210 226 240 236 228 224 223 219 213 208 203 197 191 187 182 183 181 180 176 174 171 171 168 162 155 144 141 135 133 131 131 130 130
206 206 197 197 196 203 213 210 201 183 164 202 224 241 225 219 224 228 227 221 214 207 201 194 191 188 187 186 184 181 177 175 174 165 151 140 135 137 146 150 143 141 140 137
220 209 192 196 201 200 212 209 202 186 188 202 209 239 219 208 213 219 219 217 216 211 206 197 194 192 190 189 185 183 178 176 173 168 168 167 169 168 169 162 156 152 151 144
205 200 198 201 201 200 202 183 192 195 205 220 211 236 227 195 219 218 213 215 215 212 207 200 196 195 191 184 181 181 177 176 174 175 175 176 174 167 157 157 158 156 153 151
208 209 209 208 198 194 166 157 161 186 205 227 211 221 235 205 214 207 205 209 210 210 205 203 196 188 182 175 175 176 175 175 174 175 176 177 171 166 162 164 163 163 160 162
200 204 197 192 170 178 180 161 165 186 203 224 187 216 239 217 217 219 211 209 205 201 199 193 187 182 177 174 174 175 174 173 174 175 177 177 174 172 173 171 171 168 169 172
193 197 188 189 190 183 191 187 191 194 201 194 188 220 225 205 244 230 219 212 207 198 196 193 187 183 178 176 174 174 175 173 174 175 175 174 172 173 172 175 173 176 178 177
196 199 175 188 190 180 181 200 216 208 175 199 201 221 244 195 177 176 193 193 195 198 193 191 186 184 179 177 176 175 173 171 173 173 171 171 172 173 170 173 175 177 175 172
200 194 179 168 165 193 201 172 179 193 191 210 206 218 210 175 180 168 170 184 180 183 183 180 181 179 175 173 172 171 171 170 169 170 169 169 171 172 170 171 174 176 175 171
200 186 165 178 193 180 166 182 196 194 232 218 210 201 98 203 196 200 187 110 193 188 174 167 163 164 161 159 161 164 164 164 165 167 166 166 166 167 167 169 173 177 177 177
175 200 181 193 211 218 203 194 191 194 203 229 232 180 73 174 175 183 157 99 100 127 141 137 137 146 150 151 154 159 161 161 162 164 162 163 162 162 166 169 173 178 180 181
158 178 163 161 169 169 191 194 203 202 190 210 219 191 94 102 119 126 116 102 98 105 114 118 123 135 143 146 148 152 156 157 157 160 160 159 161 165 170 171 172 177 180 182
151 193 222 208 181 172 190 197 196 192 209 216 228 219 224 209 164 132 106 105 106 105 112 114 115 119 128 138 140 143 146 150 151 154 156 158 163 167 169 167 170 174 178 185
17 194 196 295 261 193 197 199 201 211 220 226 228 228 231 226 207 170 145 132 122 118 115 111 110 110 114 117 125 132 137 142 146 149 149 151 154 156 158 160 164 168 176 189
10 182 147 271 203 189 203 212 213 220 224 230 232 248 232 187 167 173 169 154 147 146 139 126 117 114 117 118 118 124 132 137 142 142 141 139 141 141 147 153 156 162 176 185
328 175 178 201 204 170 215 215 211 210 222 219 229 230 186 190 186 181 174 168 161 155 149 139 128 124 119 121 124 125 130 131 130 130 130 131 133 132 136 142 150 164 178 185
208 144 140 161 173 210 126 96 220 207 233 244 240 218 208 205 178 168 168 166 157 151 148 140 119 109 103 105 111 113 115 118 116 115 118 122 128 129 131 136 149 164 178 190
226 196 176 190 206 236 189 106 215 216 231 282 235 203 167 144 141 135 115 148 150 145 132 126 123 119 111 103 107 111 108 108 106 103 101 105 123 127 129 132 143 159 176 201
172 211 204 195 210 217 77 10 316 234 226 338 211 188 183 188 203 179 130 122 120 110 107 105 110 111 108 101 103 105 105 105 97 89 87 91 111 129 134 136 138 149 183 211
148 186 213 220 222 241 12 327 248 202 291 41 201 189 185 222 280 106 106 97 101 96 90 93 99 97 93 93 96 95 90 82 72 76 82 79 87 102 113 114 105 128 143 160
260 196 198 219 214 214 12 24 202 344 354 6 61 75 93 86 92 104 106 102 98 92 90 89 91 84 78 78 87 88 73 56 56 73 79 79 79 82 93 95 83 81 114 139
310 322 323 277 320 12 0 329 325 327 341 10 25 74 106 107 108 106 102 101 98 95 90 88 91 84 70 63 69 77 58 47 59 78 78 74 71 69 70 76 63 45 42 329
26 333 238 241 299 321 342 346 2 25 39 32 56 101 119 119 120 114 110 105 103 99 96 95 93 86 71 59 58 61 52 43 60 79 77 72 68 58 48 41 32 14 329 293
327 294 217 234 280 322 -0 1 8 37 54 58 57 71 108 124 126 125 119 112 106 98 93 92 90 85 71 60 58 53 48 48 57 64 64 53 43 37 27 9 341 307 288 295
326 287 280 273 328 303 335 353 3 22 36 55 71 70 82 111 123 122 115 112 108 100 92 88 84 79 67 57 50 41 35 43 52 47 35 24 9 3 349 329 323 328 307 318